COSMOS 2557 (706K)

Last updated on Thu Oct 30 2025 00:02:36 GMT+0000 (Coordinated Universal Time)

1 52984U 22075A 25302.23267258 -.00000012 00000+0 00000+0 0 9993 2 52984 64.4333 322.6175 0013712 273.3925 86.5020 2.13102050 25792
UTC large
Height (km)
Speed (km/s)
/
Latitude / Longitude
Inclination (degrees)
Orbital Period (minutes)
Azimuth
Elevation
Range (km)
Doppler Factor

Next 0 passes for location: London (51.5072 / 0.1276)

Sorry there are no passes over London.